Date String (YYYY-MM-DD hh:mm:ss) UTC,Instrument flags,Ambient pressure (hPa),Sample flow (lpm),Bypass flow (lpm),Sample temperature (°C),Ambient temperature (°C),ASC tube jacket temperature (°C),LED temperature (°C),Box temperature (°C),Sample RH (%),Span deviation,Mass concentration (μg/m³),Mass concentration (μg/m³),Mass concentration (μg/m³)
DateTimeUTC,F1_M11,P_M11,Q1_M11,Q2_M11,T1_M11,T2_M11,T3_M11,T4_M11,T5_M11,U1_M11,ZSPAN_M11,X0_M11,X2_M11,X1_M11
2021-08-22 02:00:00,,0825.0,5.01,0.00,28.8,27.7,00.0,38.0,30.6,28.4,0001.9,0011.61,0008.13,0007.61
2021-08-22 02:01:00,,0824.9,5.00,0.00,28.8,27.8,00.0,38.0,30.6,28.6,0002.0,0011.59,0008.10,0007.57
2021-08-22 02:02:00,,0825.0,4.99,0.00,28.9,27.9,00.0,38.0,30.6,28.2,0001.8,0011.54,0008.06,0007.53
2021-08-22 02:03:00,,0825.0,5.00,0.00,28.9,28.0,00.0,38.0,30.7,28.4,0001.8,0011.44,0008.02,0007.51
2021-08-22 02:04:00,,0825.1,5.00,0.00,28.9,28.1,00.0,38.0,30.7,28.6,0001.7,0011.35,0007.97,0007.49
2021-08-22 02:05:00,,0825.1,5.00,0.00,28.9,28.1,00.0,38.0,30.7,29.2,0001.7,0011.38,0007.97,0007.45
2021-08-22 02:06:00,,0825.2,5.01,0.00,29.0,28.2,00.0,38.0,30.8,29.6,0002.0,0011.38,0007.97,0007.43
2021-08-22 02:07:00,,0825.2,5.00,0.00,29.0,28.3,00.0,38.0,30.8,29.8,0002.4,0011.19,0007.92,0007.43
2021-08-22 02:08:00,,0825.3,4.99,0.00,29.0,28.3,00.0,38.1,30.8,30.1,0002.6,0011.34,0007.99,0007.48
2021-08-22 02:09:00,,0825.3,5.01,0.00,29.0,28.4,00.0,38.1,30.9,32.4,0002.6,0011.41,0008.05,0007.51
2021-08-22 02:10:00,,0825.3,5.00,0.00,29.1,28.4,00.0,38.1,30.9,33.8,0002.7,0011.42,0008.10,0007.55
2021-08-22 02:11:00,,0825.3,5.01,0.00,29.1,28.5,00.0,38.1,30.9,33.3,0002.8,0011.51,0008.17,0007.62
2021-08-22 02:12:00,,0825.3,5.00,0.00,29.1,28.5,00.0,38.1,30.9,33.2,0002.7,0011.70,0008.25,0007.67
2021-08-22 02:13:00,,0825.3,5.00,0.00,29.1,28.5,00.0,38.2,31.0,33.2,0002.5,0011.82,0008.32,0007.74
2021-08-22 02:14:00,,0825.3,5.01,0.00,29.2,28.5,00.0,38.2,31.0,33.4,0002.3,0011.90,0008.36,0007.78
2021-08-22 02:15:00,,0825.3,5.00,0.00,29.2,28.5,00.0,38.2,31.0,33.6,0002.2,0012.04,0008.45,0007.86
2021-08-22 02:16:00,,0825.3,5.01,0.00,29.1,27.1,00.0,38.2,30.6,33.6,0001.9,0012.84,0008.47,0007.93
2021-08-22 02:17:00,,0825.3,5.00,0.00,29.0,25.9,00.0,38.2,30.3,34.4,0001.5,0013.14,0008.55,0007.99
2021-08-22 02:18:00,,0825.3,5.01,0.00,28.9,25.8,00.0,38.1,30.3,34.9,0001.3,0013.26,0008.64,0008.06
2021-08-22 02:19:00,,0825.4,5.00,0.00,28.9,26.2,00.0,38.1,30.4,34.8,0001.1,0013.30,0008.71,0008.13
2021-08-22 02:20:00,,0825.3,5.00,0.00,28.9,26.6,00.0,38.1,30.5,35.2,0001.1,0013.38,0008.80,0008.18
2021-08-22 02:21:00,,0825.3,5.00,0.00,29.1,27.0,00.0,38.1,30.7,35.4,0001.1,0013.43,0008.82,0008.20
2021-08-22 02:22:00,,0825.3,5.00,0.00,29.4,27.2,00.0,38.1,30.9,34.6,0001.0,0013.38,0008.81,0008.20
2021-08-22 02:23:00,,0825.3,5.01,0.00,29.6,27.5,00.0,38.1,31.0,34.0,0001.2,0014.12,0008.79,0008.22
2021-08-22 02:24:00,,0825.3,4.99,0.00,29.8,27.6,00.0,38.1,31.0,33.6,0001.5,0014.31,0008.83,0008.23
2021-08-22 02:25:00,,0825.3,5.01,0.00,29.8,27.8,00.0,38.2,31.0,33.4,0001.5,0014.30,0008.83,0008.23
2021-08-22 02:26:00,,0825.3,5.00,0.00,29.9,27.9,00.0,38.3,31.0,33.3,0001.5,0014.28,0008.83,0008.22
2021-08-22 02:27:00,,0825.2,4.99,0.00,29.9,28.0,00.0,38.3,31.0,33.2,0001.8,0013.46,0008.87,0008.23
2021-08-22 02:28:00,,0825.2,5.00,0.00,29.9,28.1,00.0,38.4,31.0,32.7,0002.0,0013.34,0008.87,0008.25
2021-08-22 02:29:00,,0825.2,4.99,0.00,29.9,28.2,00.0,38.4,31.1,32.5,0002.3,0013.55,0008.89,0008.27
2021-08-22 02:30:00,,0825.1,4.99,0.00,29.9,28.3,00.0,38.5,31.1,32.4,0002.4,0013.75,0008.89,0008.28
2021-08-22 02:31:00,,0825.1,5.00,0.00,29.9,28.4,00.0,38.5,31.1,31.8,0002.4,0013.75,0008.87,0008.28
2021-08-22 02:32:00,,0825.2,5.01,0.00,29.9,28.4,00.0,38.6,31.1,31.4,0002.6,0013.81,0008.90,0008.31
2021-08-22 02:33:00,,0825.2,5.00,0.00,29.9,28.4,00.0,38.6,31.2,30.9,0002.8,0013.82,0008.93,0008.34
2021-08-22 02:34:00,,0825.2,5.00,0.00,29.9,28.4,00.0,38.7,31.2,30.5,0002.8,0012.99,0008.96,0008.35
2021-08-22 02:35:00,,0825.2,4.99,0.00,29.9,28.5,00.0,38.7,31.1,30.3,0002.7,0012.80,0008.94,0008.35
2021-08-22 02:36:00,,0825.2,5.01,0.00,29.8,28.5,00.0,38.7,31.2,29.6,0002.8,0012.87,0008.95,0008.36
2021-08-22 02:37:00,,0825.2,5.00,0.00,29.8,28.5,00.0,38.7,31.2,29.2,0002.7,0012.97,0008.95,0008.37
2021-08-22 02:38:00,,0825.2,5.00,0.00,29.8,28.5,00.0,38.7,31.2,29.0,0002.7,0013.19,0008.92,0008.34
2021-08-22 02:39:00,,0825.2,5.01,0.00,29.8,28.5,00.0,38.7,31.2,29.3,0002.6,0013.09,0008.86,0008.30
2021-08-22 02:40:00,,0825.1,4.98,0.00,29.8,28.6,00.0,38.7,31.2,29.5,0002.4,0012.97,0008.82,0008.25
2021-08-22 02:41:00,,0825.1,5.00,0.00,29.8,28.6,00.0,38.7,31.2,29.4,0002.2,0012.67,0008.78,0008.22
2021-08-22 02:42:00,,0825.1,4.99,0.00,29.8,28.6,00.0,38.8,31.2,29.2,0002.3,0012.65,0008.76,0008.19
2021-08-22 02:43:00,,0825.0,5.00,0.00,29.8,28.6,00.0,38.8,31.2,29.3,0002.3,0012.57,0008.72,0008.15
2021-08-22 02:44:00,,0825.0,5.00,0.00,29.8,28.7,00.0,38.8,31.2,29.4,0002.2,0012.59,0008.69,0008.09
2021-08-22 02:45:00,,0825.0,5.01,0.00,29.8,28.7,00.0,38.8,31.2,29.2,0002.0,0012.55,0008.65,0008.06
2021-08-22 02:46:00,,0825.1,5.00,0.00,29.8,28.0,00.0,38.8,31.1,29.1,0001.7,0012.50,0008.62,0008.04
2021-08-22 02:47:00,,0825.0,5.00,0.00,29.6,26.3,00.0,38.7,30.7,29.2,0001.6,0012.40,0008.56,0008.01
2021-08-22 02:48:00,,0825.0,5.00,0.00,29.5,25.8,00.0,38.7,30.6,29.9,0001.6,0012.30,0008.55,0007.98
2021-08-22 02:49:00,,0825.0,4.99,0.00,29.4,26.1,00.0,38.6,30.6,30.5,0001.4,0012.18,0008.54,0007.98
2021-08-22 02:50:00,,0825.1,5.00,0.00,29.4,26.6,00.0,38.6,30.7,30.4,0001.5,0012.13,0008.52,0007.97
2021-08-22 02:51:00,,0825.1,5.00,0.00,29.4,26.9,00.0,38.5,30.8,30.5,0001.8,0012.43,0008.54,0007.98
2021-08-22 02:52:00,,0825.1,4.99,0.00,29.4,27.2,00.0,38.5,30.8,30.5,0001.9,0012.57,0008.53,0007.97
2021-08-22 02:53:00,,0825.1,5.01,0.00,29.4,27.5,00.0,38.5,30.8,30.6,0002.0,0012.59,0008.53,0007.97
2021-08-22 02:54:00,,0825.1,4.99,0.00,29.4,27.6,00.0,38.5,30.9,30.7,0002.0,0012.71,0008.56,0007.97
2021-08-22 02:55:00,,0825.2,5.00,0.00,29.4,27.8,00.0,38.5,30.9,30.8,0002.0,0012.68,0008.57,0008.00
2021-08-22 02:56:00,,0825.2,5.00,0.00,29.4,27.9,00.0,38.5,30.9,30.9,0002.1,0012.72,0008.59,0008.02
2021-08-22 02:57:00,,0825.2,5.00,0.00,29.4,28.0,00.0,38.5,30.9,30.6,0002.1,0012.81,0008.62,0008.02
2021-08-22 02:58:00,,0825.2,5.00,0.00,29.4,28.1,00.0,38.5,30.9,30.9,0002.1,0012.94,0008.66,0008.01
2021-08-22 02:59:00,,0825.2,4.99,0.00,29.4,28.2,00.0,38.5,31.0,30.6,0002.2,0012.94,0008.68,0008.02
